Tracking 35035 objects as of 16-Aug-2026
HD Live streaming from Space Station
objects crossing your sky now

ICEYE-X7

Track ICEYE-X7 now!
10-day predictions
ICEYE-X7 is classified as:


NORAD ID: 46496
Int'l Code: 2020-068L
Launch date: September 28, 2020
Source: (FIN)
Launch site: PLESETSK MISSILE AND SPACE COMPLEX (PKMTR)

Uplink (MHz):
Downlink (MHz): 2263.500
Beacon (MHz):
Mode: 300k BPSK
Call sign:
Status: Inactive

Your satellite tracking list
Your tracking list is empty




NASA's NSSDC Master Catalog

Two Line Element Set (TLE):
1 46496U 20068L   26228.61915635  .00007233  00000-0  23175-3 0  9997
2 46496  97.7549 197.9616 0009380 108.0214 252.2050 15.32656458324041
Source of the keplerian elements: AFSPC